Regional Weather Roundup
Issued by NWS

Home | Current Version | Previous Version | Text Only | Print | Product List | Glossary On
Versions: 1 2 3 4 5 6 7 8 9 10 11 12 13 14 15 16 17 18 19 20 21 22 23 24 25 26 27 28 29 30 31 32 33 34 35 36 37 38 39 40 41 42 43 44 45 46 47 48 49 50
000
ASUS43 KTOP 160708
RWRKS

WEATHER ROUNDUP FOR KANSAS
NATIONAL WEATHER SERVICE GOODLAND KS
200 AM CDT WED AUG 16 2017

NOTE:  "FAIR" INDICATES FEW OR NO CLOUDS BELOW 12,000 FEET WITH NO
SIGNIFICANT WEATHER AND/OR OBSTRUCTIONS TO VISIBILITY.

KSZ001>006-013>018-027>032-041>047-160800-
NORTHWEST KANSAS

CITY           SKY/WX    TMP DP  RH WIND       PRES   REMARKS
GOODLAND       PTCLDY    63  59  87 N23G35    29.91R
HAYS           MOCLDY    73  71  93 SE12      29.79S
HILL CITY      PTCLDY    74  69  85 SE10      29.77F
RUSSELL        PTCLDY    74  71  91 SE14      29.78F
$$

KSZ061>065-074>080-084>089-160800-
SOUTHWEST KANSAS

CITY           SKY/WX    TMP DP  RH WIND       PRES   REMARKS
DODGE CITY     CLOUDY    77  67  71 S22       29.79F
ELKHART          N/A     67  61  81 SW8         N/A
GARDEN CITY    CLOUDY    73  66  78 S14       29.79S
GREAT BEND     MOCLDY    74  72  93 S13       29.79F
LIBERAL        MOCLDY    73  64  73 S9        29.83R THUNDER
PRATT          PTCLDY    72  70  91 S13G18    29.81F
$$

KSZ066>073-081>083-090>101-160800-
SOUTHEAST KANSAS

CITY           SKY/WX    TMP DP  RH WIND       PRES   REMARKS
CHANUTE        CLOUDY    74  70  87 S8        29.86S
COFFEYVILLE    LGT RAIN  73  70  90 S5        29.85S
HUTCHINSON     CLEAR     72  69  90 SE8       29.81F
MEDICINE LODGE   N/A     73  71  93 SE7       29.81S
NEWTON         CLOUDY    71  69  93 S10       29.83F
PARSONS        CLOUDY    73  69  87 SE3       29.86F
WICHITA INTL   CLOUDY    72  71  97 S10       29.82F
WICHITA JABRA  CLOUDY    72  70  93 S10       29.82F
WICHITA MCCONL CLOUDY    73  69  88 S12       29.83S
WINFIELD       MOCLDY    73  70  90 S9        29.85S
$$

KSZ007>012-019>026-033>040-048>060-102>105-160800-
NORTHEAST KANSAS

CITY           SKY/WX    TMP DP  RH WIND       PRES   REMARKS
CONCORDIA      CLOUDY    74  72  93 E3        29.80F
EMPORIA        CLOUDY    74  67  78 S10       29.83F
LAWRENCE       CLOUDY    75  73  93 E5        29.83F
MANHATTAN      CLOUDY    78  73  84 S8        29.79F
MARYSVILLE     PTCLDY    75  72  88 SE8       29.81F
OLATHE IND     CLOUDY    76  72  87 SE9       29.85F
OLATHE EXE     CLOUDY    75  72  90 S9        29.85F
SALINA         CLOUDY    77  72  84 S9        29.79F
TOPEKA BILLARD CLOUDY    78  74  87 SE8       29.82F
TOPEKA FORBES  CLOUDY    78  74  87 SE8       29.83F
$$




USA.gov is the U.S. government's official web portal to all federal, state and local government web resources and services.